CW2073 Weather Reports


Display with metric or nautical units.
time (UTC)temp
F
wind
direction
speed
MPH
gust
MPH
rain 1hr
in
rain 24hr
in
rain mn
in
humidity
%
barometer
mb
20260510163519 68 134 1.0 4.0 0.00 0.29 0.00 72 1012.5
20260510162521 67 162 0.0 3.0 0.00 0.29 0.00 75 1012.7
20260510161519 66 245 1.0 4.0 0.00 0.29 0.00 77 1012.7
20260510160520 66 208 0.0 3.0 0.00 0.29 0.00 78 1012.7
20260510155520 65 20 0.0 2.0 0.00 0.29 0.00 78 1012.7
20260510154540 65 207 1.0 3.0 0.00 0.29 0.00 79 1012.8
20260510153521 63 231 1.0 5.0 0.00 0.29 0.00 82 1012.9
20260510152519 61 281 1.0 4.0 0.00 0.29 0.00 85 1012.9
20260510151520 60 112 1.0 4.0 0.00 0.29 0.00 86 1012.9
20260510150600 60 169 0.0 3.0 0.00 0.29 0.00 87 1013.1
20260510145522 60 256 0.0 2.0 0.00 0.29 0.00 87 1013.2
20260510144518 60 201 1.0 4.0 0.00 0.29 0.00 86 1013.1
20260510143521 59 272 1.0 2.0 0.00 0.29 0.00 87 1013.1
20260510142602 58 226 0.0 2.0 0.00 0.29 0.00 90 1013.1
20260510141521 57 263 0.0 2.0 0.00 0.29 0.00 93 1013.0
20260510140521 56 284 1.0 2.0 0.00 0.29 0.00 93 1012.9
20260510135518 56 327 0.0 1.0 0.00 0.29 0.00 94 1012.9
20260510134518 56 62 0.0 1.0 0.00 0.29 0.00 95 1012.9
20260510133518 56 233 0.0 2.0 0.00 0.29 0.00 97 1012.9
20260510132541 55 264 0.0 1.0 0.00 0.29 0.00 99 1012.8
20260510131522 54 271 1.0 2.0 0.00 0.29 0.00 99 1012.7
20260510130519 55 262 0.0 2.0 0.00 0.29 0.00 100 1012.6
20260510125519 54 255 0.0 1.0 0.00 0.29 0.00 100 1012.4
20260510124519 53 0.0 0.0 0.00 0.29 0.00 100 1012.4
20260510123519 53 247 0.0 1.0 0.00 0.29 0.00 100 1012.4
20260510122519 53 0.0 0.0 0.00 0.30 0.00 99 1012.2
20260510121540 53 238 0.0 1.0 0.00 0.30 0.00 99 1012.2
20260510120520 53 166 0.0 1.0 0.00 0.30 0.00 99 1012.1
20260510115540 53 322 0.0 1.0 0.00 0.30 0.00 99 1011.9
20260510114520 53 281 0.0 2.0 0.00 0.30 0.00 99 1011.9
20260510113520 53 242 0.0 1.0 0.00 0.30 0.00 99 1012.0
20260510112520 52 235 0.0 1.0 0.00 0.30 0.00 99 1011.8
20260510111521 52 320 0.0 1.0 0.00 0.30 0.00 99 1011.6
20260510110522 52 185 0.0 1.0 0.00 0.30 0.00 99 1011.5
20260510105522 52 331 0.0 1.0 0.00 0.30 0.00 99 1011.4
20260510104521 52 337 0.0 1.0 0.00 0.30 0.00 99 1011.2
20260510103522 52 324 0.0 1.0 0.00 0.30 0.00 99 1011.3
20260510102518 52 216 0.0 1.0 0.00 0.30 0.00 99 1011.3
20260510101518 51 316 0.0 1.0 0.00 0.30 0.00 99 1011.3
20260510100538 51 227 0.0 1.0 0.00 0.30 0.00 99 1011.4
20260510095541 51 0.0 0.0 0.00 0.30 0.00 99 1011.4
20260510094521 51 211 0.0 0.0 0.00 0.30 0.00 99 1011.3
20260510093518 51 246 0.0 2.0 0.00 0.30 0.00 99 1011.2
20260510092521 51 21 0.0 1.0 0.00 0.30 0.00 99 1011.4
20260510091519 51 218 0.0 1.0 0.00 0.30 0.00 99 1011.5
20260510090518 51 0.0 0.0 0.00 0.30 0.00 99 1011.6
20260510085540 51 236 0.0 0.0 0.00 0.30 0.00 99 1011.7
20260510084523 51 0.0 0.0 0.00 0.30 0.00 99 1011.7
20260510083520 51 0.0 0.0 0.00 0.30 0.00 99 1011.7
20260510082519 52 359 0.0 1.0 0.00 0.30 0.00 99 1011.7
20260510081519 52 5 0.0 2.0 0.00 0.30 0.00 99 1011.6
20260510080524 52 332 0.0 2.0 0.00 0.30 0.00 99 1011.5
20260510075520 52 222 0.0 2.0 0.00 0.30 0.00 99 1011.4
20260510074517 52 344 0.0 2.0 0.00 0.30 0.00 99 1010.8
20260510073541 52 0.0 0.0 0.00 0.30 0.00 99 1010.8
20260510072520 52 0.0 0.0 0.00 0.30 0.00 99 1010.8
20260510071522 52 62 0.0 0.0 0.00 0.30 0.00 99 1010.8
20260510070520 52 348 0.0 1.0 0.00 0.30 0.00 100 1011.0
20260510065518 52 0.0 0.0 0.00 0.30 0.00 100 1010.9
20260510064518 52 0.0 0.0 0.00 0.30 0.00 100 1010.9
20260510063521 52 349 0.0 1.0 0.00 0.30 0.00 100 1011.1
20260510062522 51 3 0.0 1.0 0.00 0.30 0.00 100 1011.1
20260510061518 51 15 0.0 1.0 0.00 0.30 0.00 100 1011.0
20260510060519 51 0.0 0.0 0.00 0.30 0.00 100 1010.9
20260510055522 51 0.0 0.0 0.00 0.31 0.00 100 1010.8
20260510054522 51 3 0.0 1.0 0.00 0.31 0.00 100 1010.7
20260510053520 51 29 0.0 1.0 0.00 0.31 0.00 100 1010.7
20260510052519 51 0.0 0.0 0.00 0.31 0.00 99 1010.8
20260510051520 51 7 0.0 0.0 0.00 0.31 0.00 99 1010.9
20260510050520 51 42 0.0 1.0 0.00 0.31 0.00 99 1010.9
20260510045521 52 0.0 0.0 0.00 0.31 0.00 99 1011.0
20260510044520 52 340 0.0 1.0 0.00 0.31 0.00 99 1011.0
20260510043520 52 0.0 0.0 0.00 0.31 0.00 99 1011.0
20260510042520 52 0.0 0.0 0.00 0.31 0.00 99 1011.0
20260510041520 52 340 0.0 1.0 0.00 0.31 0.00 99 1010.9
20260510040520 52 0.0 0.0 0.00 0.31 0.00 99 1011.0
20260510035518 52 29 0.0 1.0 0.00 0.31 0.31 99 1011.0
20260510034539 51 318 1.0 2.0 0.00 0.31 0.31 99 1010.9
20260510033520 51 28 0.0 1.0 0.00 0.31 0.31 99 1010.8
20260510032520 51 253 0.0 1.0 0.00 0.31 0.31 99 1010.6
20260510031521 51 250 0.0 0.0 0.00 0.31 0.31 99 1010.6
20260510030523 51 43 0.0 1.0 0.00 0.31 0.31 99 1010.6
20260510025521 51 339 0.0 1.0 0.00 0.31 0.31 99 1010.7
20260510024540 51 19 0.0 0.0 0.00 0.31 0.31 99 1010.8
20260510023519 50 0.0 0.0 0.00 0.31 0.31 99 1010.9
20260510022541 50 53 0.0 1.0 0.00 0.31 0.31 99 1010.8
20260510021521 50 0.0 0.0 0.00 0.31 0.31 98 1010.8
20260510020519 50 54 0.0 1.0 0.00 0.31 0.31 98 1010.7
20260510015520 51 0.0 0.0 0.00 0.31 0.31 98 1010.8
20260510014519 51 63 0.0 0.0 0.00 0.31 0.31 98 1010.7
20260510013539 51 0.0 0.0 0.00 0.31 0.31 98 1010.8
20260510012522 52 48 0.0 1.0 0.00 0.31 0.31 98 1010.7
20260510011540 52 342 0.0 1.0 0.00 0.31 0.31 98 1010.5
20260510010539 52 357 0.0 1.0 0.00 0.31 0.31 98 1010.2
20260510005519 52 0.0 0.0 0.00 0.31 0.31 98 1010.2
20260510004521 52 64 0.0 1.0 0.00 0.31 0.31 97 1010.1
20260510003541 52 25 0.0 2.0 0.00 0.31 0.31 97 1010.2
20260510002603 53 46 0.0 1.0 0.00 0.31 0.31 97 1010.2
20260510001540 53 47 0.0 0.0 0.00 0.31 0.31 97 1010.2
20260510000520 54 0.0 0.0 0.00 0.31 0.31 96 1010.1
20260509235520 54 0.0 0.0 0.00 0.31 0.31 96 1010.0
20260509234521 55 309 0.0 1.0 0.00 0.31 0.31 96 1010.0
20260509233520 55 0.0 0.0 0.00 0.31 0.31 96 1009.9
20260509232518 55 78 0.0 2.0 0.00 0.31 0.31 96 1009.9
20260509231518 55 162 0.0 2.0 0.00 0.31 0.31 96 1009.8
20260509230521 56 211 0.0 2.0 0.00 0.31 0.31 96 1009.8
20260509225522 56 18 0.0 1.0 0.00 0.31 0.31 96 1010.2
20260509224518 55 233 0.0 2.0 0.00 0.31 0.31 96 1010.3
20260509223519 55 245 1.0 2.0 0.02 0.31 0.31 97 1010.1
20260509222519 54 195 0.0 2.0 0.09 0.31 0.31 97 1010.1
20260509221519 54 152 0.0 1.0 0.10 0.31 0.31 97 1010.1
20260509220522 54 233 0.0 2.0 0.12 0.31 0.31 97 1010.3
20260509215540 54 295 0.0 1.0 0.17 0.31 0.31 97 1010.5
20260509214519 54 193 0.0 1.0 0.19 0.31 0.31 96 1010.4
20260509213520 54 29 0.0 0.0 0.18 0.29 0.29 96 1010.6
20260509212520 54 273 0.0 1.0 0.12 0.23 0.23 96 1010.5
20260509211520 55 232 0.0 2.0 0.11 0.21 0.21 95 1010.6
20260509210519 55 104 0.0 2.0 0.10 0.19 0.19 95 1010.3
20260509205521 55 26 0.0 1.0 0.06 0.14 0.14 94 1010.5
20260509204519 55 159 0.0 2.0 0.04 0.12 0.12 94 1010.7
20260509203520 55 85 0.0 1.0 0.04 0.12 0.12 93 1010.7
20260509202520 55 58 0.0 1.0 0.03 0.11 0.11 92 1010.6
20260509201521 56 280 0.0 3.0 0.02 0.10 0.10 90 1010.9
20260509200521 56 258 1.0 3.0 0.01 0.09 0.09 89 1010.8
20260509195542 57 253 3.0 7.0 0.00 0.09 0.08 87 1010.9
20260509194522 57 258 2.0 3.0 0.00 0.08 0.08 87 1010.8
20260509193522 57 279 1.0 5.0 0.01 0.08 0.08 89 1010.7
20260509192541 57 344 0.0 1.0 0.02 0.08 0.08 89 1010.7
20260509191542 57 86 0.0 1.0 0.02 0.08 0.08 89 1010.7
20260509190519 56 235 0.0 2.0 0.04 0.08 0.08 89 1010.7
20260509185519 57 268 1.0 3.0 0.05 0.08 0.08 89 1010.7
20260509184541 57 252 1.0 3.0 0.06 0.08 0.08 88 1010.8
20260509183522 57 268 1.0 2.0 0.05 0.07 0.07 87 1011.2
20260509182540 58 279 1.0 4.0 0.04 0.06 0.06 83 1011.2
20260509181519 59 253 3.0 9.0 0.04 0.06 0.06 80 1011.5
20260509180521 61 233 2.0 4.0 0.02 0.04 0.04 75 1011.1
20260509175519 61 242 2.0 5.0 0.01 0.03 0.03 72 1010.8
20260509174519 63 248 3.0 7.0 0.00 0.03 0.02 68 1010.6
20260509173520 64 254 2.0 6.0 0.00 0.03 0.02 64 1010.5
20260509172520 64 240 2.0 6.0 0.00 0.03 0.02 63 1010.4
20260509171520 63 239 1.0 4.0 0.00 0.03 0.02 65 1010.5
20260509170520 63 251 1.0 4.0 0.00 0.03 0.02 66 1010.5
20260509165521 63 234 1.0 4.0 0.00 0.03 0.02 66 1010.6
20260509164521 63 218 0.0 2.0 0.00 0.03 0.02 66 1010.8